24-04-2023, 00:00:03,    333,    0.0,    5.3,   0.00,   0.00, 1004.2,   98.7, -999.0
24-04-2023, 00:00:13,    333,    0.0,    5.3,   0.00,   0.00, 1004.2,   98.7, -999.0
24-04-2023, 00:00:23,    333,    0.0,    5.3,   0.00,   0.00, 1004.2,   98.7, -999.0
24-04-2023, 00:00:33,    334,    0.0,    5.2,   0.00,   0.00, 1004.2,   98.7, -999.0
24-04-2023, 00:00:43,    334,    0.0,    5.3,   0.00,   0.00, 1004.2,   98.6, -999.0
24-04-2023, 00:00:53,    331,    0.0,    5.3,   0.00,   0.00, 1004.2,   98.7, -999.0
24-04-2023, 00:01:03,    333,    0.6,    5.4,   0.00,   0.00, 1004.3,   99.0, -999.0
24-04-2023, 00:01:13,    334,    0.7,    5.4,   0.00,   0.00, 1004.3,   99.0, -999.0
24-04-2023, 00:01:23,    334,    0.0,    5.3,   0.00,   0.00, 1004.2,   98.7, -999.0
24-04-2023, 00:01:33,    333,    0.0,    5.4,   0.00,   0.00, 1004.3,   98.8, -999.0
24-04-2023, 00:01:43,    333,    0.0,    5.3,   0.00,   0.00, 1004.2,   98.7, -999.0
24-04-2023, 00:01:53,    334,    0.3,    5.3,   0.00,   0.00, 1004.3,   98.9, -999.0
24-04-2023, 00:02:03,    333,    0.7,    5.4,   0.00,   0.00, 1004.3,   99.0, -999.0
24-04-2023, 00:02:12,    293,    1.7,    5.4,   0.00,   0.00, 1004.3,   99.0, -999.0
24-04-2023, 00:02:23,    295,    0.3,    5.4,   0.00,   0.00, 1004.3,   99.0, -999.0
24-04-2023, 00:02:33,    294,    0.2,    5.4,   0.00,   0.00, 1004.3,   99.0, -999.0
24-04-2023, 00:02:43,    307,    0.7,    5.4,   0.00,   0.00, 1004.3,   99.0, -999.0
24-04-2023, 00:02:52,    353,    2.3,    5.4,   0.00,   0.00, 1004.3,   99.0, -999.0
24-04-2023, 00:03:03,    353,    0.5,    5.4,   0.00,   0.00, 1004.3,   99.0, -999.0
24-04-2023, 00:03:13,    353,    0.1,    5.3,   0.00,   0.00, 1004.3,   98.8, -999.0
24-04-2023, 00:03:22,    350,    0.1,    5.2,   0.00,   0.00, 1004.2,   98.8, -999.0
24-04-2023, 00:03:33,    340,    1.1,    5.3,   0.00,   0.00, 1004.3,   99.0, -999.0
24-04-2023, 00:03:43,    314,    1.7,    5.4,   0.00,   0.00, 1004.3,   99.0, -999.0
24-04-2023, 00:03:52,    313,    1.6,    5.3,   0.00,   0.00, 1004.3,   99.0, -999.0
24-04-2023, 00:04:02,    313,    1.3,    5.4,   0.00,   0.00, 1004.3,   99.0, -999.0
24-04-2023, 00:04:13,    313,    1.2,    5.3,   0.00,   0.00, 1004.3,   99.1, -999.0
24-04-2023, 00:04:22,    322,    1.3,    5.3,   0.00,   0.00, 1004.3,   99.0, -999.0
24-04-2023, 00:04:32,    322,    0.4,    5.3,   0.00,   0.00, 1004.3,   98.9, -999.0
24-04-2023, 00:04:42,    321,    0.2,    5.3,   0.00,   0.00, 1004.2,   99.0, -999.0
24-04-2023, 00:04:53,    320,    0.1,    5.3,   0.00,   0.00, 1004.3,   99.0, -999.0
24-04-2023, 00:05:02,    320,    0.0,    5.3,   0.00,   0.00, 1004.2,   98.8, -999.0
24-04-2023, 00:05:12,    320,    0.1,    5.4,   0.00,   0.00, 1004.3,   98.8, -999.0
24-04-2023, 00:05:22,    319,    0.2,    5.3,   0.00,   0.00, 1004.3,   98.9, -999.0
24-04-2023, 00:05:32,    320,    1.0,    5.3,   0.00,   0.00, 1004.3,   98.9, -999.0
24-04-2023, 00:05:42,    318,    1.3,    5.3,   0.00,   0.00, 1004.3,   99.0, -999.0
24-04-2023, 00:05:52,    312,    1.5,    5.3,   0.00,   0.00, 1004.3,   98.9, -999.0
24-04-2023, 00:06:02,    316,    0.9,    5.3,   0.00,   0.00, 1004.3,   99.0, -999.0
24-04-2023, 00:06:12,    315,    0.1,    5.3,   0.00,   0.00, 1004.2,   98.8, -999.0
24-04-2023, 00:06:22,    315,    0.0,    5.2,   0.00,   0.00, 1004.2,   98.6, -999.0
24-04-2023, 00:06:32,    316,    0.0,    5.3,   0.00,   0.00, 1004.3,   98.7, -999.0
24-04-2023, 00:06:42,    315,    0.6,    5.4,   0.00,   0.00, 1004.3,   99.0, -999.0
24-04-2023, 00:06:52,    315,    0.0,    5.3,   0.00,   0.00, 1004.3,   98.7, -999.0
24-04-2023, 00:07:02,    315,    0.3,    5.4,   0.00,   0.00, 1004.3,   98.9, -999.0
24-04-2023, 00:07:12,    315,    0.4,    5.4,   0.00,   0.00, 1004.3,   99.0, -999.0
24-04-2023, 00:07:22,    314,    0.2,    5.3,   0.00,   0.00, 1004.3,   98.9, -999.0
24-04-2023, 00:07:32,    315,    0.0,    5.3,   0.00,   0.00, 1004.3,   98.7, -999.0
24-04-2023, 00:07:42,    315,    0.0,    5.3,   0.00,   0.00, 1004.2,   98.7, -999.0
24-04-2023, 00:07:52,    315,    0.0,    5.3,   0.00,   0.00, 1004.2,   98.7, -999.0
24-04-2023, 00:08:02,    315,    0.0,    5.3,   0.00,   0.00, 1004.3,   98.6, -999.0
24-04-2023, 00:08:12,    315,    0.0,    5.4,   0.00,   0.00, 1004.3,   98.6, -999.0
24-04-2023, 00:08:22,    315,    0.0,    5.4,   0.00,   0.00, 1004.3,   98.6, -999.0
24-04-2023, 00:08:32,    315,    0.2,    5.4,   0.00,   0.00, 1004.3,   98.9, -999.0
24-04-2023, 00:08:42,    311,    0.3,    5.4,   0.00,   0.00, 1004.3,   98.9, -999.0
24-04-2023, 00:08:52,    312,    0.0,    5.3,   0.00,   0.00, 1004.3,   98.6, -999.0
24-04-2023, 00:09:02,    311,    0.0,    5.3,   0.00,   0.00, 1004.3,   98.7, -999.0
24-04-2023, 00:09:12,    311,    0.0,    5.4,   0.00,   0.00, 1004.3,   98.6, -999.0
24-04-2023, 00:09:22,    311,    0.0,    5.3,   0.00,   0.00, 1004.3,   98.7, -999.0
24-04-2023, 00:09:32,    312,    0.0,    5.4,   0.00,   0.00, 1004.3,   98.6, -999.0
24-04-2023, 00:09:42,    311,    0.3,    5.4,   0.00,   0.00, 1004.4,   99.0, -999.0
24-04-2023, 00:09:52,    311,    0.0,    5.3,   0.00,   0.00, 1004.3,   98.7, -999.0
24-04-2023, 00:10:02,    311,    0.0,    5.3,   0.00,   0.00, 1004.3,   98.7, -999.0
24-04-2023, 00:10:12,    311,    0.0,    5.3,   0.00,   0.00, 1004.3,   98.7, -999.0
24-04-2023, 00:10:22,    311,    0.0,    5.3,   0.00,   0.00, 1004.3,   98.6, -999.0
24-04-2023, 00:10:32,    311,    0.0,    5.2,   0.00,   0.00, 1004.3,   98.6, -999.0
24-04-2023, 00:10:42,    311,    0.0,    5.3,   0.00,   0.00, 1004.3,   98.7, -999.0
24-04-2023, 00:10:52,    312,    0.0,    5.2,   0.00,   0.00, 1004.3,   98.6, -999.0
24-04-2023, 00:11:02,    311,    0.0,    5.4,   0.00,   0.00, 1004.3,   98.7, -999.0
24-04-2023, 00:11:11,    311,    0.0,    5.4,   0.00,   0.00, 1004.3,   98.7, -999.0
24-04-2023, 00:11:22,    311,    0.0,    5.4,   0.00,   0.00, 1004.3,   98.7, -999.0
24-04-2023, 00:11:32,    311,    0.1,    5.3,   0.00,   0.00, 1004.3,   98.8, -999.0
24-04-2023, 00:11:42,    311,    0.0,    5.4,   0.00,   0.00, 1004.3,   98.7, -999.0
24-04-2023, 00:11:51,    311,    0.0,    5.3,   0.00,   0.00, 1004.3,   98.7, -999.0
24-04-2023, 00:12:02,    311,    0.0,    5.4,   0.00,   0.00, 1004.3,   98.7, -999.0
24-04-2023, 00:12:12,    313,    1.0,    5.4,   0.00,   0.00, 1004.4,   99.0, -999.0
24-04-2023, 00:12:21,    298,    0.3,    5.4,   0.00,   0.00, 1004.4,   98.8, -999.0
24-04-2023, 00:12:31,    297,    0.0,    5.4,   0.00,   0.00, 1004.3,   98.6, -999.0
24-04-2023, 00:12:42,    298,    0.0,    5.4,   0.00,   0.00, 1004.3,   98.7, -999.0
24-04-2023, 00:12:51,    297,    0.0,    5.2,   0.00,   0.00, 1004.3,   98.8, -999.0
24-04-2023, 00:13:01,    297,    0.1,    5.3,   0.00,   0.00, 1004.3,   98.8, -999.0
24-04-2023, 00:13:11,    296,    0.1,    5.5,   0.00,   0.00, 1004.3,   98.8, -999.0
24-04-2023, 00:13:22,    297,    0.0,    5.2,   0.00,   0.00, 1004.3,   98.8, -999.0
24-04-2023, 00:13:31,    296,    0.0,    5.4,   0.00,   0.00, 1004.3,   98.7, -999.0
24-04-2023, 00:13:41,    297,    0.1,    5.4,   0.00,   0.00, 1004.3,   98.8, -999.0
24-04-2023, 00:13:52,    297,    1.1,    5.4,   0.00,   0.00, 1004.4,   99.0, -999.0
24-04-2023, 00:14:01,    296,    0.7,    5.5,   0.00,   0.00, 1004.3,   99.0, -999.0
24-04-2023, 00:14:11,    296,    0.5,    5.4,   0.00,   0.00, 1004.3,   98.9, -999.0
24-04-2023, 00:14:21,    295,    0.0,    5.4,   0.00,   0.00, 1004.3,   98.6, -999.0
24-04-2023, 00:14:31,    296,    0.0,    5.4,   0.00,   0.00, 1004.3,   98.7, -999.0
24-04-2023, 00:14:41,    296,    0.0,    5.3,   0.00,   0.00, 1004.3,   98.7, -999.0
24-04-2023, 00:14:51,    295,    0.0,    5.4,   0.00,   0.00, 1004.3,   98.5, -999.0
24-04-2023, 00:15:01,    296,    0.0,    5.3,   0.00,   0.00, 1004.3,   98.6, -999.0
24-04-2023, 00:15:11,    296,    0.0,    5.4,   0.00,   0.00, 1004.3,   98.6, -999.0
24-04-2023, 00:15:21,    296,    0.0,    5.4,   0.00,   0.00, 1004.3,   98.8, -999.0
24-04-2023, 00:15:31,    295,    0.2,    5.4,   0.00,   0.00, 1004.4,   98.9, -999.0
24-04-2023, 00:15:41,    296,    0.0,    5.4,   0.00,   0.00, 1004.3,   98.7, -999.0
24-04-2023, 00:15:51,    296,    0.0,    5.3,   0.00,   0.00, 1004.3,   98.6, -999.0
24-04-2023, 00:16:01,    295,    0.0,    5.3,   0.00,   0.00, 1004.3,   98.7, -999.0
24-04-2023, 00:16:11,    295,    0.0,    5.4,   0.00,   0.00, 1004.3,   98.6, -999.0
24-04-2023, 00:16:21,    296,    0.0,    5.4,   0.00,   0.00, 1004.4,   98.8, -999.0
24-04-2023, 00:16:31,    295,    0.0,    5.4,   0.00,   0.00, 1004.3,   98.8, -999.0
24-04-2023, 00:16:41,    295,    0.0,    5.3,   0.00,   0.00, 1004.3,   98.7, -999.0
24-04-2023, 00:16:51,    295,    0.0,    5.4,   0.00,   0.00, 1004.3,   98.8, -999.0
24-04-2023, 00:17:01,    295,    0.0,    5.3,   0.00,   0.00, 1004.3,   98.7, -999.0
24-04-2023, 00:17:11,    295,    0.0,    5.3,   0.00,   0.00, 1004.3,   98.6, -999.0
24-04-2023, 00:17:21,    296,    0.2,    5.3,   0.00,   0.00, 1004.4,   98.8, -999.0
24-04-2023, 00:17:31,    296,    1.2,    5.4,   0.00,   0.00, 1004.4,   99.0, -999.0
24-04-2023, 00:17:41,    295,    0.3,    5.3,   0.00,   0.00, 1004.4,   98.9, -999.0
24-04-2023, 00:17:51,    293,    0.0,    5.3,   0.00,   0.00, 1004.3,   98.8, -999.0
24-04-2023, 00:18:01,    295,    0.0,    5.2,   0.00,   0.00, 1004.3,   98.6, -999.0
24-04-2023, 00:18:11,    294,    0.0,    5.2,   0.00,   0.00, 1004.3,   98.6, -999.0
24-04-2023, 00:18:21,    295,    0.0,    5.4,   0.00,   0.00, 1004.3,   98.6, -999.0
24-04-2023, 00:18:31,    295,    0.0,    5.4,   0.00,   0.00, 1004.3,   98.6, -999.0
24-04-2023, 00:18:41,    295,    0.0,    5.2,   0.00,   0.00, 1004.3,   98.6, -999.0
24-04-2023, 00:18:51,    295,    0.0,    5.2,   0.00,   0.00, 1004.3,   98.6, -999.0
24-04-2023, 00:19:01,    295,    0.0,    5.3,   0.00,   0.00, 1004.3,   98.6, -999.0
24-04-2023, 00:19:11,    295,    0.0,    5.2,   0.00,   0.00, 1004.3,   98.6, -999.0
24-04-2023, 00:19:21,    295,    0.0,    5.3,   0.00,   0.00, 1004.3,   98.7, -999.0
24-04-2023, 00:19:31,    295,    0.0,    5.2,   0.00,   0.00, 1004.3,   98.6, -999.0
24-04-2023, 00:19:41,    295,    0.0,    5.3,   0.00,   0.00, 1004.3,   98.6, -999.0
24-04-2023, 00:19:51,    295,    0.0,    5.3,   0.00,   0.00, 1004.3,   98.6, -999.0
24-04-2023, 00:20:01,    295,    0.0,    5.3,   0.00,   0.00, 1004.3,   98.6, -999.0
24-04-2023, 00:20:10,    294,    0.0,    5.3,   0.00,   0.00, 1004.3,   98.7, -999.0
24-04-2023, 00:20:21,    295,    0.0,    5.3,   0.00,   0.00, 1004.3,   98.7, -999.0
24-04-2023, 00:20:31,    295,    0.0,    5.3,   0.00,   0.00, 1004.3,   98.7, -999.0
24-04-2023, 00:20:41,    298,    0.0,    5.3,   0.00,   0.00, 1004.3,   98.7, -999.0
24-04-2023, 00:20:50,    298,    0.0,    5.4,   0.00,   0.00, 1004.3,   98.7, -999.0
24-04-2023, 00:21:01,    299,    0.1,    5.3,   0.00,   0.00, 1004.3,   98.8, -999.0
24-04-2023, 00:21:11,    299,    0.0,    5.4,   0.00,   0.00, 1004.3,   98.8, -999.0
24-04-2023, 00:21:21,    299,    0.7,    5.4,   0.00,   0.00, 1004.4,   98.9, -999.0
24-04-2023, 00:21:30,    300,    0.7,    5.4,   0.00,   0.00, 1004.4,   99.0, -999.0
24-04-2023, 00:21:41,    278,    0.3,    5.4,   0.00,   0.00, 1004.4,   98.9, -999.0
24-04-2023, 00:21:51,    278,    0.0,    5.3,   0.00,   0.00, 1004.3,   98.6, -999.0
24-04-2023, 00:22:00,    279,    0.0,    5.2,   0.00,   0.00, 1004.3,   98.7, -999.0
24-04-2023, 00:22:10,    279,    0.2,    5.2,   0.00,   0.00, 1004.4,   99.0, -999.0
24-04-2023, 00:22:21,    280,    0.3,    5.2,   0.00,   0.00, 1004.4,   99.0, -999.0
24-04-2023, 00:22:30,    294,    0.0,    5.2,   0.00,   0.00, 1004.3,   98.9, -999.0
24-04-2023, 00:22:40,    294,    0.0,    5.3,   0.00,   0.00, 1004.3,   98.8, -999.0
24-04-2023, 00:22:50,    294,    0.0,    5.3,   0.00,   0.00, 1004.3,   98.7, -999.0
24-04-2023, 00:23:01,    294,    0.0,    5.2,   0.00,   0.00, 1004.3,   98.7, -999.0
24-04-2023, 00:23:10,    294,    0.0,    5.3,   0.00,   0.00, 1004.3,   98.7, -999.0
24-04-2023, 00:23:20,    294,    0.0,    5.3,   0.00,   0.00, 1004.3,   98.7, -999.0
24-04-2023, 00:23:30,    294,    0.0,    5.2,   0.00,   0.00, 1004.3,   98.7, -999.0
24-04-2023, 00:23:40,    294,    0.9,    5.4,   0.00,   0.00, 1004.4,   99.0, -999.0
24-04-2023, 00:23:50,    293,    0.2,    5.4,   0.00,   0.00, 1004.4,   99.0, -999.0
24-04-2023, 00:24:00,    293,    0.0,    5.3,   0.00,   0.00, 1004.3,   98.7, -999.0
24-04-2023, 00:24:10,    293,    0.0,    5.2,   0.00,   0.00, 1004.3,   98.6, -999.0
24-04-2023, 00:24:20,    293,    0.3,    5.3,   0.00,   0.00, 1004.4,   98.9, -999.0
24-04-2023, 00:24:30,    296,    1.0,    5.4,   0.00,   0.00, 1004.4,   99.0, -999.0
24-04-2023, 00:24:40,    297,    2.1,    5.3,   0.00,   0.00, 1004.4,   99.0, -999.0
24-04-2023, 00:24:50,    297,    1.3,    5.4,   0.00,   0.00, 1004.4,   99.0, -999.0
24-04-2023, 00:25:00,    297,    0.8,    5.3,   0.00,   0.00, 1004.4,   99.0, -999.0
24-04-2023, 00:25:10,    298,    0.7,    5.3,   0.00,   0.00, 1004.5,   99.0, -999.0
24-04-2023, 00:25:20,    297,    0.1,    5.4,   0.00,   0.00, 1004.4,   98.8, -999.0
24-04-2023, 00:25:30,    298,    0.0,    5.2,   0.00,   0.00, 1004.3,   98.7, -999.0
24-04-2023, 00:25:40,    294,    0.3,    5.3,   0.00,   0.00, 1004.4,   99.0, -999.0
24-04-2023, 00:25:50,    294,    0.1,    5.3,   0.00,   0.00, 1004.3,   98.8, -999.0
24-04-2023, 00:26:00,    299,    0.0,    5.3,   0.00,   0.00, 1004.3,   98.7, -999.0
24-04-2023, 00:26:10,    298,    0.3,    5.3,   0.00,   0.00, 1004.3,   98.9, -999.0
24-04-2023, 00:26:20,    298,    0.1,    5.2,   0.00,   0.00, 1004.3,   98.7, -999.0
24-04-2023, 00:26:30,    300,    0.0,    5.2,   0.00,   0.00, 1004.3,   98.7, -999.0
24-04-2023, 00:26:40,    299,    0.0,    5.2,   0.00,   0.00, 1004.3,   98.7, -999.0
24-04-2023, 00:26:50,    299,    0.0,    5.1,   0.00,   0.00, 1004.3,   98.8, -999.0
24-04-2023, 00:27:00,    299,    0.0,    5.1,   0.00,   0.00, 1004.3,   98.7, -999.0
24-04-2023, 00:27:10,    299,    0.0,    5.2,   0.00,   0.00, 1004.3,   98.7, -999.0
24-04-2023, 00:27:20,    299,    0.0,    5.2,   0.00,   0.00, 1004.3,   98.7, -999.0
24-04-2023, 00:27:30,    299,    0.0,    5.2,   0.00,   0.00, 1004.3,   98.7, -999.0
24-04-2023, 00:27:40,    299,    0.0,    5.2,   0.00,   0.00, 1004.3,   98.8, -999.0
24-04-2023, 00:27:50,    299,    0.0,    5.2,   0.00,   0.00, 1004.3,   98.7, -999.0
24-04-2023, 00:28:00,    299,    0.0,    5.1,   0.00,   0.00, 1004.3,   98.7, -999.0
24-04-2023, 00:28:10,    299,    0.0,    5.2,   0.00,   0.00, 1004.3,   98.7, -999.0
24-04-2023, 00:28:20,    299,    0.0,    5.1,   0.00,   0.00, 1004.3,   98.6, -999.0
24-04-2023, 00:28:30,    300,    0.0,    5.1,   0.00,   0.00, 1004.3,   98.6, -999.0
24-04-2023, 00:28:40,    299,    0.0,    5.2,   0.00,   0.00, 1004.3,   98.6, -999.0
24-04-2023, 00:28:50,    299,    0.0,    5.2,   0.00,   0.00, 1004.3,   98.7, -999.0
24-04-2023, 00:29:00,    299,    0.0,    5.2,   0.00,   0.00, 1004.3,   98.6, -999.0
24-04-2023, 00:29:09,    299,    0.0,    5.2,   0.00,   0.00, 1004.3,   98.7, -999.0
24-04-2023, 00:29:20,    299,    0.0,    5.2,   0.00,   0.00, 1004.3,   98.6, -999.0
24-04-2023, 00:29:30,    299,    0.0,    5.2,   0.00,   0.00, 1004.3,   98.7, -999.0
24-04-2023, 00:29:40,    299,    0.0,    5.2,   0.00,   0.00, 1004.3,   98.7, -999.0
24-04-2023, 00:29:49,    309,    0.8,    5.2,   0.00,   0.00, 1004.4,   99.0, -999.0
24-04-2023, 00:30:00,    309,    0.5,    5.3,   0.00,   0.00, 1004.4,   99.0, -999.0
24-04-2023, 00:30:10,    308,    0.3,    5.2,   0.00,   0.00, 1004.4,   98.8, -999.0
24-04-2023, 00:30:19,    308,    0.6,    5.3,   0.00,   0.00, 1004.5,   99.0, -999.0
24-04-2023, 00:30:29,    309,    0.5,    5.3,   0.00,   0.00, 1004.5,   99.1, -999.0
24-04-2023, 00:30:40,    309,    0.3,    5.2,   0.00,   0.00, 1004.4,   98.9, -999.0
24-04-2023, 00:30:50,    309,    0.0,    5.2,   0.00,   0.00, 1004.3,   98.7, -999.0
24-04-2023, 00:30:59,    308,    0.0,    5.2,   0.00,   0.00, 1004.3,   98.6, -999.0
24-04-2023, 00:31:09,    308,    0.0,    5.1,   0.00,   0.00, 1004.3,   98.6, -999.0
24-04-2023, 00:31:20,    308,    0.0,    5.1,   0.00,   0.00, 1004.3,   98.7, -999.0
24-04-2023, 00:31:31,    309,    0.0,    5.2,   0.00,   0.00, 1004.4,   98.8, -999.0
24-04-2023, 00:31:39,    308,    0.3,    5.2,   0.00,   0.00, 1004.4,   98.9, -999.0
24-04-2023, 00:31:50,    309,    0.0,    5.2,   0.00,   0.00, 1004.4,   98.8, -999.0
24-04-2023, 00:31:59,    309,    0.1,    5.1,   0.00,   0.00, 1004.4,   98.9, -999.0
24-04-2023, 00:32:09,    308,    0.1,    5.1,   0.00,   0.00, 1004.4,   98.8, -999.0
24-04-2023, 00:32:19,    305,    0.0,    5.2,   0.00,   0.00, 1004.3,   98.6, -999.0
24-04-2023, 00:32:30,    309,    0.0,    5.2,   0.00,   0.00, 1004.4,   98.7, -999.0
24-04-2023, 00:32:39,    308,    0.1,    5.2,   0.00,   0.00, 1004.4,   98.8, -999.0
24-04-2023, 00:32:49,    338,    0.5,    5.2,   0.00,   0.00, 1004.4,   99.0, -999.0
24-04-2023, 00:32:59,    338,    0.3,    5.2,   0.00,   0.00, 1004.4,   98.9, -999.0
24-04-2023, 00:33:09,    337,    0.4,    5.2,   0.00,   0.00, 1004.4,   98.8, -999.0
24-04-2023, 00:33:19,    337,    0.3,    5.1,   0.00,   0.00, 1004.4,   98.9, -999.0
24-04-2023, 00:33:29,    337,    0.7,    5.2,   0.00,   0.00, 1004.5,   99.0, -999.0
24-04-2023, 00:33:39,    337,    1.2,    5.2,   0.00,   0.00, 1004.5,   99.0, -999.0
24-04-2023, 00:33:49,    336,    0.1,    5.1,   0.00,   0.00, 1004.4,   98.7, -999.0
24-04-2023, 00:33:59,    336,    0.6,    5.1,   0.00,   0.00, 1004.4,   98.9, -999.0
24-04-2023, 00:34:09,    336,    0.5,    5.1,   0.00,   0.00, 1004.4,   98.9, -999.0
24-04-2023, 00:34:19,    336,    0.0,    5.1,   0.00,   0.00, 1004.3,   98.7, -999.0
24-04-2023, 00:34:29,    336,    0.0,    5.1,   0.00,   0.00, 1004.3,   98.7, -999.0
24-04-2023, 00:34:39,    336,    0.0,    5.1,   0.00,   0.00, 1004.3,   98.6, -999.0
24-04-2023, 00:34:49,    336,    0.0,    5.1,   0.00,   0.00, 1004.3,   98.7, -999.0
24-04-2023, 00:34:59,    336,    0.0,    5.1,   0.00,   0.00, 1004.3,   98.8, -999.0
24-04-2023, 00:35:09,    336,    0.0,    5.1,   0.00,   0.00, 1004.3,   98.7, -999.0
24-04-2023, 00:35:19,    336,    0.0,    5.1,   0.00,   0.00, 1004.3,   98.6, -999.0
24-04-2023, 00:35:29,    336,    0.0,    5.1,   0.00,   0.00, 1004.3,   98.6, -999.0
24-04-2023, 00:35:39,    336,    0.0,    5.1,   0.00,   0.00, 1004.3,   98.7, -999.0
24-04-2023, 00:35:49,    336,    1.2,    5.2,   0.00,   0.00, 1004.5,   99.0, -999.0
24-04-2023, 00:35:59,    323,    2.1,    5.2,   0.00,   0.00, 1004.5,   99.0, -999.0
24-04-2023, 00:36:09,    321,    1.5,    5.2,   0.00,   0.00, 1004.5,   99.0, -999.0
24-04-2023, 00:36:19,    320,    1.5,    5.2,   0.00,   0.00, 1004.4,   99.1, -999.0
24-04-2023, 00:36:29,    320,    0.9,    5.1,   0.00,   0.00, 1004.5,   99.1, -999.0
24-04-2023, 00:36:39,    320,    0.0,    5.1,   0.00,   0.00, 1004.3,   98.8, -999.0
24-04-2023, 00:36:49,    306,    1.0,    5.1,   0.00,   0.00, 1004.4,   98.9, -999.0
24-04-2023, 00:36:59,    292,    1.7,    5.3,   0.00,   0.00, 1004.4,   99.0, -999.0
24-04-2023, 00:37:09,    283,    1.6,    5.2,   0.00,   0.00, 1004.4,   99.0, -999.0
24-04-2023, 00:37:19,    283,    0.1,    5.2,   0.00,   0.00, 1004.4,   98.8, -999.0
24-04-2023, 00:37:29,    316,    0.5,    5.1,   0.00,   0.00, 1004.4,   98.9, -999.0
24-04-2023, 00:37:39,    281,    0.5,    5.1,   0.00,   0.00, 1004.4,   98.9, -999.0
24-04-2023, 00:37:49,    281,    1.2,    5.2,   0.00,   0.00, 1004.4,   99.0, -999.0
24-04-2023, 00:37:59,    299,    0.6,    5.1,   0.00,   0.00, 1004.5,   99.0, -999.0
24-04-2023, 00:38:09,    301,    0.6,    5.2,   0.00,   0.00, 1004.4,   98.9, -999.0
24-04-2023, 00:38:19,    291,    0.9,    5.1,   0.00,   0.00, 1004.4,   98.9, -999.0
24-04-2023, 00:38:29,    292,    0.8,    5.2,   0.00,   0.00, 1004.5,   99.0, -999.0
24-04-2023, 00:38:39,    292,    0.1,    5.2,   0.00,   0.00, 1004.4,   98.9, -999.0
24-04-2023, 00:38:48,    325,    1.9,    5.2,   0.00,   0.00, 1004.5,   99.0, -999.0
24-04-2023, 00:38:59,    317,    0.9,    5.1,   0.00,   0.00, 1004.4,   98.9, -999.0
24-04-2023, 00:39:09,    293,    0.0,    5.1,   0.00,   0.00, 1004.4,   98.8, -999.0
24-04-2023, 00:39:18,    292,    0.2,    5.1,   0.00,   0.00, 1004.4,   99.0, -999.0
24-04-2023, 00:39:28,    294,    0.2,    5.0,   0.00,   0.00, 1004.5,   99.0, -999.0
24-04-2023, 00:39:39,    295,    0.8,    5.1,   0.00,   0.00, 1004.4,   99.0, -999.0
24-04-2023, 00:39:49,    295,    0.5,    5.1,   0.00,   0.00, 1004.5,   99.1, -999.0
24-04-2023, 00:39:58,    299,    0.8,    5.1,   0.00,   0.00, 1004.4,   99.0, -999.0
24-04-2023, 00:40:08,    314,    0.8,    5.2,   0.00,   0.00, 1004.5,   99.1, -999.0
24-04-2023, 00:40:19,    339,    1.3,    5.1,   0.00,   0.00, 1004.5,   99.1, -999.0
24-04-2023, 00:40:28,    304,    1.3,    5.1,   0.00,   0.00, 1004.5,   99.0, -999.0
24-04-2023, 00:40:38,    304,    0.1,    5.1,   0.00,   0.00, 1004.4,   98.9, -999.0
24-04-2023, 00:40:49,    301,    0.7,    5.1,   0.00,   0.00, 1004.4,   99.0, -999.0
24-04-2023, 00:40:58,    302,    0.1,    5.1,   0.00,   0.00, 1004.4,   98.9, -999.0
24-04-2023, 00:41:08,    307,    0.1,    5.1,   0.00,   0.00, 1004.4,   98.8, -999.0
24-04-2023, 00:41:18,    307,    0.2,    5.1,   0.00,   0.00, 1004.4,   98.9, -999.0
24-04-2023, 00:41:29,    307,    0.0,    5.1,   0.00,   0.00, 1004.4,   98.6, -999.0
24-04-2023, 00:41:38,    307,    0.0,    5.0,   0.00,   0.00, 1004.3,   98.6, -999.0
24-04-2023, 00:41:48,    307,    0.1,    5.0,   0.00,   0.00, 1004.4,   98.9, -999.0
24-04-2023, 00:41:58,    306,    0.2,    5.1,   0.00,   0.00, 1004.4,   99.0, -999.0
24-04-2023, 00:42:08,    292,    0.1,    5.2,   0.00,   0.00, 1004.4,   98.9, -999.0
24-04-2023, 00:42:18,    292,    0.2,    5.1,   0.00,   0.00, 1004.4,   98.9, -999.0
24-04-2023, 00:42:28,    292,    0.0,    5.1,   0.00,   0.00, 1004.3,   98.6, -999.0
24-04-2023, 00:42:38,    291,    0.2,    5.0,   0.00,   0.00, 1004.4,   98.9, -999.0
24-04-2023, 00:42:48,    305,    0.1,    5.1,   0.00,   0.00, 1004.4,   98.8, -999.0
24-04-2023, 00:42:58,    307,    0.7,    5.2,   0.00,   0.00, 1004.5,   99.0, -999.0
24-04-2023, 00:43:08,    311,    2.1,    5.1,   0.00,   0.00, 1004.5,   99.0, -999.0
24-04-2023, 00:43:18,    315,    2.1,    5.1,   0.00,   0.00, 1004.5,   99.1, -999.0
24-04-2023, 00:43:28,    315,    1.3,    5.1,   0.00,   0.00, 1004.5,   99.1, -999.0
24-04-2023, 00:43:38,    315,    0.3,    5.0,   0.00,   0.00, 1004.4,   98.8, -999.0
24-04-2023, 00:43:48,    308,    0.7,    5.1,   0.00,   0.00, 1004.5,   99.1, -999.0
24-04-2023, 00:43:58,    308,    0.2,    5.0,   0.00,   0.00, 1004.4,   98.8, -999.0
24-04-2023, 00:44:08,    307,    0.5,    5.1,   0.00,   0.00, 1004.5,   99.0, -999.0
24-04-2023, 00:44:18,    314,    0.4,    5.1,   0.00,   0.00, 1004.4,   98.9, -999.0
24-04-2023, 00:44:28,    314,    0.4,    5.1,   0.00,   0.00, 1004.4,   98.9, -999.0
24-04-2023, 00:44:38,    314,    0.2,    5.0,   0.00,   0.00, 1004.4,   98.9, -999.0
24-04-2023, 00:44:48,    315,    0.3,    5.0,   0.00,   0.00, 1004.4,   98.9, -999.0
24-04-2023, 00:44:58,    338,    0.8,    5.1,   0.00,   0.00, 1004.4,   98.9, -999.0
24-04-2023, 00:45:08,    334,    0.8,    5.1,   0.00,   0.00, 1004.4,   98.9, -999.0
24-04-2023, 00:45:18,    328,    0.0,    5.0,   0.00,   0.00, 1004.3,   98.7, -999.0
24-04-2023, 00:45:28,    327,    0.0,    5.0,   0.00,   0.00, 1004.3,   98.7, -999.0
24-04-2023, 00:45:38,    328,    0.0,    5.1,   0.00,   0.00, 1004.3,   98.6, -999.0
24-04-2023, 00:45:48,    326,    0.3,    5.1,   0.00,   0.00, 1004.4,   98.9, -999.0
24-04-2023, 00:45:58,    305,    1.3,    5.1,   0.00,   0.00, 1004.5,   99.0, -999.0
24-04-2023, 00:46:08,    306,    1.6,    5.2,   0.00,   0.00, 1004.5,   99.0, -999.0
24-04-2023, 00:46:18,    296,    1.1,    5.1,   0.00,   0.00, 1004.5,   99.0, -999.0
24-04-2023, 00:46:28,    296,    0.7,    5.1,   0.00,   0.00, 1004.5,   99.1, -999.0
24-04-2023, 00:46:38,    298,    1.5,    5.2,   0.00,   0.00, 1004.5,   99.1, -999.0
24-04-2023, 00:46:48,    298,    0.2,    5.0,   0.00,   0.00, 1004.4,   98.8, -999.0